Simultaneous Nadir Overpasses (SNOs) Predictions

Prediction of SNOs between METOP-B and TERRA Satellite Orbit:

Table of predicted SNOs for the next 14.0 days since TLE Epoch: 6/12/2021
Index Date (METOP-B) Time (METOP-B) Lat,Lon (METOP-B) SZA (METOP-B ) Date (TERRA) Time (TERRA) Lat,Lon (TERRA) SZA (TERRA ) Distance(km) Time Diff (sec)
1 06/13/2021 20:50:07 81.26, -87.34 60.71 06/13/2021 20:51:12 81.26, -87.50 60.72 2.64 65
2 06/13/2021 21:40:48 -81.26, 80.10 119.28 06/13/2021 21:40:39 -81.25, 80.07 119.30 0.89 9
3 06/16/2021 16:24:31 81.26, -21.07 60.56 06/16/2021 16:25:25 81.26, -21.11 60.58 0.74 54
4 06/16/2021 17:15:11 -81.27, 146.79 119.38 06/16/2021 17:14:51 -81.27, 146.86 119.37 1.45 20
5 06/19/2021 11:58:54 81.25, 45.19 60.47 06/19/2021 11:59:37 81.25, 45.24 60.49 0.83 43
6 06/19/2021 12:49:34 -81.26,-146.92 119.47 06/19/2021 12:49:03 -81.27,-146.77 119.46 2.69 31
7 06/22/2021 07:33:17 81.26, 111.83 60.48 06/22/2021 07:33:49 81.27, 111.93 60.51 1.85 32
8 06/22/2021 08:23:57 -81.27, -80.26 119.45 06/22/2021 08:23:16 -81.27, -80.43 119.50 2.88 41
9 06/25/2021 03:07:41 81.25, 178.07 60.49 06/25/2021 03:08:02 81.26, 178.21 60.52 2.39 21



Historial Predications of SNOs between METOP-B and TERRA
